Учаджи

Туркменистан     38°05′23″N   62°48′12″E
темп.,
°C
ветер,
м/с
пор.,
м/с
влажн.,
%
обл.,
%
осадки,
мм/ч
давл.,
гПа
погр.,
м
27 октября, ср
ср2723:00+15с4450100 0.0 102427
02:00+13с335386 0.0 102314
05:00+12ссв226099 0.0 102310
08:00+13ссз2256100 0.0 102532
11:00+17сз4544100 0.0 1025622
14:00+18сз7735100 0.0 10241273
17:00+15ссз8839100 0.0 1025992
20:00+12ссз7960100 0.0 1028455
28 октября, чт
чт2823:00+10ссз4871100 0.0 1029415
02:00+9сз4578100 0.0 1028100
05:00+10сз477299 0.0 1028506
08:00+9сз457674 0.0 1029351
11:00+11зсз345097 0.0 1030871
14:00+13зсз34445 0.0 10271044
17:00+14сз33424 0.0 10271130
20:00+9с33555 0.0 102811
29 октября, пт
пт2923:00+7св44660 0.0 102935
02:00+6всв44700 0.0 102830
05:00+5в34720 0.0 102822
08:00+6в34670 0.0 103066
11:00+13в44400 0.0 1029579
14:00+17в44280 0.0 10271116
17:00+17в45250 0.0 1027237
20:00+12всв45350 0.0 102831
30 октября, сб
сб3023:00+10в44390 0.0 102930
02:00+9в44420 0.0 102831
05:00+8в44476 0.0 102835
08:00+9в464899 0.0 103080
11:00+17в553130 0.0 1029515
14:00+21всв442588 0.0 10271022
17:00+21св4525100 0.0 102772
20:00+16ссв5632100 0.0 102961
31 октября, вс
вс3123:00+13св5825100 0.0 102994
02:00+12св4430100 0.0 102924
05:00+11ссв3335100 0.0 103036
08:00+12ссв3438100 0.0 103196
11:00+17с452881 0.0 1031632
14:00+21с55165 0.0 10291111
17:00+20с57173 0.0 1028291
20:00+14с56295 0.0 102951